DL1VED Weather Reports


time (UTC)temp
F
wind
direction
speed
knots
gust
knots
rain 1hr
in
rain 24hr
in
rain mn
in
humidity
%
barometer
mb
20260507092905 54 317 0.0 1.7 0.00 0.00 0.00 70 1014.6
20260507091405 54 352 0.0 6.1 0.00 0.00 0.00 70 1014.4
20260507085905 53 30 0.9 2.6 0.00 0.00 0.00 72 1014.3
20260507084405 52 2 0.0 0.9 0.00 0.00 0.00 73 1014.3
20260507082905 52 315 0.0 0.0 0.00 0.00 0.00 75 1014.2
20260507081405 51 275 0.0 2.6 0.00 0.00 0.00 76 1014.1
20260507075905 51 337 1.7 2.6 0.00 0.00 0.00 77 1013.9
20260507074405 51 329 1.7 1.7 0.00 0.00 0.00 76 1013.8
20260507072905 51 30 0.0 0.0 0.00 0.00 0.00 77 1013.7
20260507071405 50 30 0.0 0.0 0.00 0.00 0.00 78 1013.6
20260507065905 50 30 0.0 0.0 0.00 0.00 0.00 78 1013.5
20260507064405 50 30 0.0 0.0 0.00 0.00 0.00 79 1013.4
20260507062905 49 30 0.0 1.7 0.00 0.00 0.00 79 1013.2
20260507061405 49 313 0.0 1.7 0.00 0.00 0.00 80 1013.1
20260507055905 49 331 2.6 2.6 0.00 0.00 0.00 80 1013.0
20260507054405 48 344 0.0 0.0 0.00 0.00 0.00 81 1012.8
20260507052905 48 351 1.7 3.5 0.00 0.00 0.00 82 1012.6
20260507051405 48 12 0.0 4.3 0.00 0.00 0.00 84 1012.2
20260507045905 48 331 1.7 4.3 0.00 0.00 0.00 83 1011.9
20260507044405 48 22 0.9 4.3 0.00 0.00 0.00 84 1011.8
20260507042905 48 9 2.6 3.5 0.00 0.00 0.00 85 1011.7
20260507041405 48 333 0.9 3.5 0.00 0.00 0.00 85 1011.6
20260507035905 48 8 0.0 3.5 0.00 0.00 0.00 84 1011.5
20260507034405 48 312 0.0 0.0 0.00 0.00 0.00 84 1011.3
20260507032905 49 305 0.0 0.0 0.00 0.00 0.00 83 1011.2
20260507031405 49 305 0.0 0.0 0.00 0.00 0.00 83 1011.1
20260507025905 49 305 0.0 0.0 0.00 0.00 0.00 83 1011.0
20260507024405 49 305 0.0 0.0 0.00 0.00 0.00 83 1010.9
20260507022905 49 282 0.0 1.7 0.00 0.00 0.00 83 1010.8
20260507021405 49 324 0.0 1.7 0.00 0.00 0.00 83 1010.8
20260507015905 49 337 0.0 1.7 0.00 0.00 0.00 83 1010.8
20260507014405 49 284 0.0 0.9 0.00 0.00 0.00 82 1010.7
20260507012906 49 357 1.7 2.6 0.00 0.00 0.00 82 1010.5
20260507011405 49 344 0.9 1.7 0.00 0.00 0.00 81 1010.5
20260507005905 49 337 0.0 0.0 0.00 0.00 0.00 81 1010.5
20260507004406 49 337 0.0 0.0 0.00 0.00 0.00 81 1010.3
20260507002906 49 337 0.0 0.0 0.00 0.05 0.00 81 1010.2
20260507001406 49 320 0.0 0.0 0.00 0.05 0.00 81 1010.2
20260506235906 49 320 0.0 0.0 0.00 0.05 0.00 81 1010.1
20260506234406 49 320 0.0 0.0 0.00 0.05 0.00 80 1010.2
20260506232906 49 320 0.0 0.0 0.00 0.10 0.00 80 1010.2
20260506231406 50 320 0.0 0.0 0.00 0.10 0.00 80 1010.1
20260506225906 49 320 0.0 0.0 0.00 0.10 0.00 80 1010.2
20260506224406 49 320 0.0 2.6 0.00 0.10 0.00 80 1010.1
20260506222906 49 315 0.0 1.7 0.00 0.10 0.00 80 1010.0
20260506221406 49 306 0.0 0.0 0.00 0.10 0.00 81 1009.8
20260506215906 49 300 0.0 3.5 0.00 0.10 0.00 80 1009.7
20260506214406 49 322 0.0 1.7 0.00 0.10 0.00 80 1009.5
20260506212906 49 54 0.0 0.0 0.00 0.12 0.00 81 1009.4
20260506211406 49 317 0.0 2.6 0.00 0.12 0.00 81 1009.3
20260506205906 50 111 0.0 1.7 0.00 0.12 0.00 81 1009.2
20260506204406 50 46 0.0 0.0 0.00 0.12 0.00 81 1009.2
20260506202906 50 21 0.9 1.7 0.00 0.29 0.00 82 1009.2
20260506201406 50 74 0.0 0.0 0.00 0.29 0.00 82 1009.0
20260506195906 50 12 0.9 3.5 0.00 0.29 0.00 82 1008.9
20260506194406 50 331 2.6 3.5 0.00 0.29 0.00 82 1008.7
20260506192906 50 23 0.0 2.6 0.00 0.32 0.00 82 1008.6
20260506191406 50 329 0.0 4.3 0.00 0.32 0.00 82 1008.3
20260506185906 50 28 0.0 4.3 0.00 0.32 0.00 82 1008.1
20260506184406 50 11 2.6 7.0 0.00 0.32 0.00 81 1007.9
20260506182906 51 45 0.9 5.2 0.00 0.33 0.00 81 1007.8
20260506181406 51 343 3.5 6.1 0.00 0.33 0.00 80 1007.7
20260506175906 51 358 2.6 7.8 0.00 0.33 0.00 80 1007.6
20260506174406 52 11 3.5 7.0 0.00 0.33 0.00 100 1007.4
20260506172906 52 326 1.7 6.1 0.00 0.33 0.00 79 1007.4
20260506171406 53 26 0.0 4.3 0.00 0.33 0.00 79 1007.2
20260506165906 53 337 0.0 4.3 0.00 0.33 0.00 82 1007.1
20260506164406 52 327 2.6 5.2 0.00 0.33 0.00 82 1007.2
20260506162906 52 1 1.7 4.3 0.00 0.34 0.00 82 1007.3
20260506161406 53 330 5.2 6.1 0.00 0.34 0.00 80 1007.2
20260506155906 53 338 2.6 7.0 0.00 0.34 0.00 80 1007.1
20260506154406 54 310 0.0 1.7 0.00 0.34 0.00 79 1007.1
20260506152906 54 316 0.9 4.3 0.00 0.35 0.00 79 1007.0
20260506151406 54 8 2.6 6.1 0.00 0.35 0.00 79 1006.8
20260506145906 54 355 0.9 4.3 0.00 0.35 0.00 79 1006.7
20260506144406 54 347 1.7 5.2 0.00 0.35 0.00 79 1006.5
20260506142906 55 1 3.5 6.1 0.00 0.36 0.00 78 1006.4
20260506141406 54 15 1.7 5.2 0.00 0.36 0.00 78 1006.4
20260506135906 55 327 3.5 5.2 0.00 0.36 0.00 78 1006.4
20260506134406 55 348 2.6 4.3 0.00 0.36 0.00 77 1006.4
20260506132906 55 333 0.9 4.3 0.00 0.41 0.00 78 1006.4
20260506131406 56 358 2.6 6.1 0.00 0.41 0.00 76 1006.2
20260506125906 57 319 4.3 5.2 0.00 0.41 0.00 74 1006.1
20260506124406 57 340 2.6 6.1 0.00 0.41 0.00 75 1005.9
20260506122906 58 307 3.5 4.3 0.00 0.42 0.00 74 1005.8
20260506121406 57 327 2.6 3.5 0.00 0.42 0.00 75 1005.8
20260506115906 57 11 3.5 5.2 0.00 0.42 0.00 76 1005.7
20260506114406 57 7 3.5 5.2 0.00 0.42 0.00 76 1005.5
20260506112906 58 40 3.5 3.5 0.00 0.42 0.00 77 1005.5
20260506111406 59 293 0.0 5.2 0.00 0.42 0.00 76 1005.5
20260506105906 58 345 4.3 4.3 0.00 0.42 0.42 76 1005.5
20260506104406 58 323 1.7 4.3 0.00 0.42 0.42 76 1005.4
20260506102906 59 291 3.5 5.2 0.00 0.42 0.42 74 1005.4
20260506101406 57 305 0.0 2.6 0.00 0.42 0.42 80 1005.4
20260506095907 58 288 0.0 1.7 0.00 0.42 0.42 79 1005.2
20260506094406 57 320 1.7 2.6 0.00 0.42 0.42 82 1005.1